Regional Weather Roundup
Issued by NWS

Home | Current Version | Previous Version | Text Only | Print | Product List | Glossary Off
Versions: 1 2 3 4 5 6 7 8 9 10 11 12 13 14 15 16 17 18 19 20 21 22 23 24 25 26 27 28 29 30 31 32 33 34 35 36 37 38 39 40 41 42 43 44 45 46 47 48 49 50

000
ASUS43 KDMX 271907
RWRIA

WEATHER ROUNDUP FOR IOWA
NATIONAL WEATHER SERVICE DES MOINES IA
200 PM CDT SUN JUL 27 2014

NOTE: "FAIR" INDICATES FEW OR NO CLOUDS BELOW 12,000 FEET WITH NO
SIGNIFICANT WEATHER AND/OR OBSTRUCTIONS TO VISIBILITY.

* - THESE STATIONS ARE NOT NWS STATIONS...THUS NOT UNDER NWS
QUALITY CONTROL.  THEY ALSO DO NOT REPORT WEATHER SUCH
AS PRECIPITATION OR FOG.

IAZ001>003-012>014-020>022-031>034-043>046-272000-
   NORTHWEST IOWA

CITY           SKY/WX    TMP DP  RH WIND       PRES   REMARKS
CARROLL *      PTSUNNY   73  59  60 NW21      30.05F
CHEROKEE *     CLOUDY    72  59  64 NW12G24   30.09S
DENISON *      PTSUNNY   73  59  60 NW18G26   30.06R
LE MARS *      PTSUNNY   73  59  60 N16G24    30.11S
ORANGE CITY *  PTSUNNY   73  55  53 N18G24    30.11S
SHELDON *      CLOUDY    70  57  64 NW14G23   30.10S
SIOUX CITY     MOSUNNY   78  57  48 NW21G37   30.09S
SPENCER        CLOUDY    68  56  65 NW18G26   30.08R
STORM LAKE *   PTSUNNY   72  59  64 NW20      30.09S
$$

IAZ055>058-069>071-079>083-090>094-272000-
   SOUTHWEST IOWA

CITY           SKY/WX    TMP DP  RH WIND       PRES   REMARKS
ATLANTIC *     MOSUNNY   79  57  47 NW20G26   30.05S HX  80
AUDUBON *      MOSUNNY   79  63  57 NW20G26   30.07S HX  80
CLARINDA *     SUNNY     81  59  47 N18G26    30.07S HX  81
COUNCIL BLFS * SUNNY     79  59  50 NW18G28   30.08R HX  80
CRESTON *      SUNNY     79  57  47 NW25G33   30.04S HX  80
HARLAN  *      MOSUNNY   77  59  53 NW21G30   30.11R
LAMONI         SUNNY     81  57  43 NW21G32   30.02R HX  81
RED OAK *      MOSUNNY   81  59  47 NW18G29   30.07S HX  81
SHENANDOAH *   SUNNY     81  59  47 NW18G25   30.08S HX  81
$$

IAZ047>049-059>061-072>074-084-272000-
   CENTRAL IOWA

CITY           SKY/WX    TMP DP  RH WIND       PRES   REMARKS
AMES           PTSUNNY   74  57  55 NW17G36   30.00S
ANKENY *       PTSUNNY   75  57  53 NW22G33   29.99S
CHARITON *     SUNNY     79  57  47 NW23G30   29.99S HX  80
DES MOINES     PTSUNNY   78  57  48 NW24G32   30.00R
GRINNELL*      MOSUNNY   73  59  60 NW18G30   29.98R
KNOXVILLE *    SUNNY     77  57  50 NW23G30   29.97R
MARSHALLTOWN   PTSUNNY   74  58  57 NW26G32   29.97R
PELLA *        MOSUNNY   77  59  53 NW18G29   29.99R
PERRY *        PTSUNNY   75  59  57 NW17G28   30.03S
$$

IAZ004>006-015-016-023>025-035-036-272000-
   NORTH CENTRAL IOWA

CITY           SKY/WX    TMP DP  RH WIND       PRES   REMARKS
ALGONA *       CLOUDY    68  57  68 NW16G22   30.04R
CLARION *      PTSUNNY   70  59  68 NW17G25   30.02R
ESTHERVILLE    CLOUDY    67  56  67 NW20G32   30.05S
FORT DODGE *   CLOUDY    70  57  64 N10G24    30.05R
MASON CITY     PTSUNNY   73  59  61 NW25G32   29.99R
FOREST CITY *  CLOUDY    70  59  68 NE22G29   29.99S
IOWA FALLS *   CLOUDY    72  57  60 W22G28    30.01R
$$

IAZ007>011-017>019-026>030-037>042-050>054-066-272000-
   NORTHEAST IOWA

CITY           SKY/WX    TMP DP  RH WIND       PRES   REMARKS
CEDAR RAPIDS   PTSUNNY   74  57  55 NW20G33   29.91R
CHARLES CITY * PTSUNNY   72  59  64 NW20G25   29.94S
CLINTON *      PTSUNNY   77  61  57 NW17G25   29.87S
DECORAH *      PTSUNNY   73  59  60 NW16G28   29.88R
DUBUQUE        PTSUNNY   72  58  61 NW22G35   29.86S
MONTICELLO *   PTSUNNY   73  59  60 NW21G31   29.88S
OELWEIN *      PTSUNNY   72  59  64 NW20G28   29.92S
WATERLOO       CLOUDY    71  58  63 NW16      29.93R
$$

IAZ064-065-067-068-078-272000-
   EAST CENTRAL IOWA

CITY           SKY/WX    TMP DP  RH WIND       PRES   REMARKS
DAVENPORT      MOSUNNY   76  58  53 NW25G35   29.86S
IOWA CITY      PTSUNNY   76  59  55 NW21G31   29.91S
MT. PLEASANT * MOSUNNY   79  55  44 W20G33    29.92R
MUSCATINE *    PTSUNNY   79  59  50 NW22G36   29.89R HX  80
QUAD CITIES    PTSUNNY   78  58  49 NW23G31   29.85R
$$

IAZ062-063-075>077-085>089-095>099-272000-
   SOUTHEAST IOWA

CITY           SKY/WX    TMP DP  RH WIND       PRES   REMARKS
BURLINGTON     MOSUNNY   79  60  52 NW20G25   29.89R HX  80
FAIRFIELD *    PTSUNNY   77  59  53 NW22G30   29.94R
FORT MADISON * SUNNY     81  57  44 NW23G31   29.92R HX  81
KEOKUK *       SUNNY     82  61  47 W22G28    29.90F HX  83
OSKALOOSA *    PTSUNNY   75  61  60 NW20G30   29.97R
CENTERVILLE *  SUNNY     81  59  47 W17G25    29.99S HX  81
OTTUMWA        MOSUNNY   77  60  55 NW22G30   29.96R
WASHINGTON *   MOSUNNY   77  61  57 NW22G31   29.93R
$$

ABBREVIATIONS USED IN REMARKS
   TC - TEMPERATURES IN CELSIUS
  WCI - WIND CHILL INDEX
   HX - HEAT INDEX
  VSB - VISIBILITY
$$




USA.gov is the U.S. government's official web portal to all federal, state and local government web resources and services.